Date,TemperatureHighF,TemperatureAvgF,TemperatureLowF,DewpointHighF,DewpointAvgF,DewpointLowF,HumidityHigh,HumidityAvg,HumidityLow,PressureMaxIn,PressureMinIn,WindSpeedMaxMPH,WindSpeedAvgMPH,GustSpeedMaxMPH,PrecipitationSumIn
2013-12-2,72.4,70.8,69.0,47.1,43.6,41.3,43,38,33,29.77,29.72,0,0,0,7.31
2013-12-3,72.5,71.2,69.7,47.3,43.5,41.4,43,37,34,29.84,29.75,0,0,0,0.00
2013-12-9,49.2,47.6,46.5,46.2,45.2,44.5,94,91,89,30.01,29.95,2,0,5,0.00
2013-12-10,56.2,43.3,26.9,48.9,35.7,18.2,96,77,33,30.34,29.83,24,3,24,0.24
2013-12-11,52.9,33.2,19.8,25.8,21.3,5.0,93,67,15,30.49,30.34,15,1,15,0.00
2013-12-12,42.2,30.2,21.5,23.5,17.6,8.9,90,63,28,30.47,30.36,11,1,11,0.00
2013-12-13,49.1,32.1,18.1,26.3,18.5,12.9,90,62,28,30.45,30.31,8,1,13,0.00
2013-12-14,43.4,39.6,35.6,42.6,38.2,23.5,97,95,93,30.35,29.82,7,1,10,0.78
2013-12-15,48.0,38.5,25.8,42.9,31.9,24.1,97,79,45,30.16,29.78,16,3,17,0.00
2013-12-16,55.2,36.3,22.8,32.2,24.7,20.8,95,68,27,30.26,30.13,21,2,24,0.01
2013-12-17,59.1,44.5,27.6,32.3,26.2,12.0,90,53,27,30.21,30.00,35,5,35,0.00
2013-12-18,52.4,35.7,24.3,21.7,17.2,8.9,78,51,19,30.36,30.04,21,1,21,0.00
2013-12-19,61.9,40.8,22.9,28.2,22.6,18.4,86,54,22,30.40,30.26,21,3,22,0.00
2013-12-20,59.9,46.0,31.5,47.4,32.9,23.3,80,62,32,30.31,30.16,17,3,17,0.00
2013-12-21,64.5,56.7,52.6,61.0,53.8,41.6,96,90,79,30.22,29.96,23,5,28,0.60
2013-12-22,64.5,57.7,55.3,61.0,56.5,54.3,97,96,91,30.03,29.94,33,4,33,3.48
2013-12-23,55.4,48.2,33.7,54.6,45.9,32.2,98,92,83,30.20,29.98,14,2,14,0.07
2013-12-24,38.6,30.5,21.5,32.5,22.9,15.4,96,75,48,30.48,30.19,17,2,17,0.00
2013-12-25,39.2,26.4,16.3,20.9,16.7,13.2,93,70,36,30.57,30.44,12,1,12,0.00
2013-12-26,49.1,30.7,18.9,26.8,21.3,16.3,93,71,37,30.45,30.33,10,1,10,0.00
2013-12-27,50.7,32.2,20.5,28.4,23.9,18.8,94,75,36,30.54,30.43,7,0,7,0.00
2013-12-28,40.8,31.9,21.4,37.0,28.6,19.7,96,88,66,30.51,30.17,6,0,6,0.39
2013-12-29,58.4,41.3,34.0,47.3,38.7,33.0,97,91,58,30.17,29.85,11,1,11,0.60
2013-12-30,45.9,35.8,29.9,39.8,33.5,29.2,98,92,77,30.21,30.02,8,1,8,0.00
2013-12-31,44.9,33.3,26.3,32.3,27.0,21.4,97,80,45,30.44,30.18,10,1,11,0.00
2014-1-1,45.2,33.0,24.2,29.9,25.6,21.1,95,77,42,30.45,30.20,17,2,18,0.00
2014-1-2,43.7,36.6,21.9,41.9,32.6,8.4,96,85,55,30.20,29.70,26,4,28,0.07